Regional Weather Roundup
Issued by NWS

Home | Current Version | Previous Version | Text Only | Print | Product List | Glossary Off
Versions: 1 2 3 4 5 6 7 8 9 10 11 12 13 14 15 16 17 18 19 20 21 22 23 24 25 26 27 28 29 30 31 32 33 34 35 36 37 38 39 40 41 42 43 44 45 46 47 48 49 50

000
ASUS43 KFSD 260110
RWRSD

WEATHER ROUNDUP FOR SOUTH DAKOTA
NATIONAL WEATHER SERVICE SIOUX FALLS SD
800 PM CDT SAT APR 25 2015

NOTE: "FAIR" INDICATES FEW OR NO CLOUDS BELOW 12,000 FEET WITH NO
SIGNIFICANT WEATHER AND/OR OBSTRUCTIONS TO VISIBILITY.


SDZ001>005-009-010-012>017-260200-
NORTHWEST AND NORTH CENTRAL SOUTH DAKOTA

CITY           SKY/WX    TMP DP  RH WIND       PRES   REMARKS
BUFFALO          N/A     45  42  89 N20       29.76R
FAITH            N/A     50  45  83 E6        29.82R
MOBRIDGE       CLOUDY    56  44  64 E12       29.82R
$$

SDZ012>016-024>037-041>051-057-063-072>074-260200-
SOUTHWEST AND SOUTH CENTRAL SOUTH DAKOTA

CITY           SKY/WX    TMP DP  RH WIND       PRES   REMARKS
RAPID CTY ARPT CLOUDY    52  47  83 NE7       29.79R
PIERRE         CLOUDY    57  46  66 E13       29.80R
CUSTER         RAIN      47  42  83 N8        29.80R
ELLSWORTH AFB  CLOUDY    52  48  87 E3        29.79R
PHILIP         CLOUDY    59  48  67 E14       29.78R
PINE RIDGE     LGT RAIN  50  48  93 CALM      29.76R FOG
SPEARFISH      CLOUDY    41  41 100 NW7       29.85R
WINNER         CLOUDY    59  45  59 E14       29.80R
$$

SDZ004>011-016>023-039-040-260200-
NORTHEAST SOUTH DAKOTA

CITY           SKY/WX    TMP DP  RH WIND       PRES   REMARKS
ABERDEEN       CLOUDY    53  42  66 E8        29.89R
WATERTOWN      CLOUDY    53  42  66 NE9       29.88R
BROOKINGS      CLOUDY    55  43  62 SE12      29.89R
SISSETON         N/A     54  43  66 S5        29.90R
$$

SDZ017-020-022-023-036>040-048>070-260200-
SOUTHEAST SOUTH DAKOTA

CITY           SKY/WX    TMP DP  RH WIND       PRES   REMARKS
SIOUX FALLS    CLOUDY    56  40  55 E13       29.86R
HURON          MOCLDY    56  43  61 E9        29.85R
CHAMBERLAIN    CLOUDY    56  46  69 E7        29.83R
MITCHELL       MOCLDY    57  46  66 E12       29.84R
YANKTON        MOCLDY    57  39  51 E14       29.83R
$$

ABBREVIATIONS USED IN REMARKS
   TC - TEMPERATURE IN CELSIUS
  WCI - WIND CHILL INDEX
   HX - HEAT INDEX
  VSB - VISIBILITY



USA.gov is the U.S. government's official web portal to all federal, state and local government web resources and services.